COSMOS 2251 DEB, 38058

Orbit data source: Space-Track

COSMOS 2251 DEB, 38058 is space debris in LEO originally from a launch on Wed, 16 Jun 1993 UTC launched from the Plesetsk Missile And Space Complex (PKMTR). The debris from Iridium 33, an American commercial communications satellite, has been tracked extensively since its accidental collision with the defunct Russian satellite Cosmos 2251 in 2009. This event, occurring at high speed in low Earth orbit (LEO), generated thousands of pieces of space debris, significantly increasing the risk of further collisions. The Iridium 33 debris cloud has impacted space traffic management and orbital debris mitigation strategies, making it a subject of ongoing study in space situational awareness.

Loading next visibility...
Identifier
38058, 1993-036BRQ
Orbit
LEO
Country
Flag of CISCIS
Related business
Manufacturer
Unknown
Mission
Spacecraft
Bus & Motor
Unknown
Mass
Unknown
Launch date (UTC)
1993-06-16 (33 years ago)
Launch vehicle
Unknown
Launch site
Plesetsk Missile And Space Complex (PKMTR)
Object type
Payload
Rocket body
Debris
Shape & HBR
Unknown shape, 0.1 m
Radar Cross Section
Medium (>0.1 m² and <1 m²)

Expand to show TLE details & history
Last TLE update: 3 days ago

TLE from 3 days ago
0 COSMOS 2251 DEB
1 38058U 93036BRQ 26205.48572258  .00002587  00000-0  19371-2 0  9996
2 38058  74.0002 286.4386 0398463 123.5996 240.3821 13.63268051613773
Epoch: 2026-07-24T11:39Z
TLE epoch observation values (Epoch: 2026-07-24T11:39:26.430Z)
Latitude
-0.00007°
Longitude
169.36678°
Altitude
1,180.779 km
Speed
7.187 km/s
True Right ascension
19h 05m 45s
True Declination
0° 00' 00"
Sunlit
Object was in full shadow at epoch
Visualization orbit readout
Latitude
Unknown
Longitude
Unknown
Altitude
Unknown
Speed
Unknown
Apparent Right ascension
Unknown
Apparent Declination
Unknown
Sunlit
N/A
Visualization observer readout
Local Sidereal Time
07:38:51
Azimuth
Unknown
Elevation
Unknown
Doppler factor
Unknown
Orbital elements
Apogee altitude
1,316.391 km
Perigee altitude
726.692 km
Semi-major axis
7,399.679 km
Eccentricity
0.03985
Inclination
74.0002°
RAAN
286.4386°
Arg. of periapsis
123.5996°
True anomaly
236.51104°
Mean anomaly
240.3821°
Eccentric anomaly
238.43682°
Mean motion
3.40976 °/min
Orbital period
105.58 mins
BSTAR
0.0019371
Loading maneuver chart data...
Computing Atmospheric mass density...

Documentation

Showing up to 5 results
|